| time (UTC) | temp C | wind direction | speed KPH | gust KPH | rain 1hr cm | rain 24hr cm | rain mn cm | humidity % | barometer mb |
| 20260506211547 | 29 | 0 | 0.0 | 0.0 | 0.00 | 0.18 | 0.18 | 83 | 1008.3 |
| 20260506210100 | 29 | 0 | 0.0 | 0.0 | 0.00 | 0.18 | 0.18 | 80 | 1008.3 |
| 20260506204552 | 28 | 0 | 0.0 | 0.0 | 0.00 | 0.18 | 0.18 | 81 | 1008.4 |
| 20260506203138 | 28 | 0 | 0.0 | 0.0 | 0.00 | 0.18 | 0.18 | 86 | 1008.6 |
| 20260506201546 | 28 | 0 | 0.0 | 0.0 | 0.00 | 0.18 | 0.18 | 83 | 1008.7 |
| 20260506200051 | 28 | 0 | 0.0 | 0.0 | 0.00 | 0.18 | 0.18 | 88 | 1008.8 |
| 20260506194610 | 27 | 0 | 0.0 | 0.0 | 0.00 | 0.18 | 0.18 | 89 | 1008.9 |
| 20260506193043 | 27 | 0 | 0.0 | 0.0 | 0.00 | 0.18 | 0.18 | 89 | 1009.0 |
| 20260506191545 | 27 | 0 | 0.0 | 0.0 | 0.00 | 0.18 | 0.18 | 89 | 1009.2 |
| 20260506190049 | 27 | 0 | 0.0 | 0.0 | 0.05 | 0.18 | 0.18 | 89 | 1009.3 |
| 20260506184552 | 26 | 0 | 0.0 | 0.0 | 0.10 | 0.18 | 0.18 | 89 | 1009.3 |
| 20260506183047 | 26 | 0 | 0.0 | 0.0 | 0.18 | 0.18 | 0.18 | 91 | 1009.6 |
| 20260506181542 | 26 | 0 | 0.0 | 0.0 | 0.18 | 0.18 | 0.18 | 89 | 1009.8 |
| 20260506180046 | 26 | 0 | 0.0 | 0.0 | 0.13 | 0.13 | 0.13 | 89 | 1010.3 |
| 20260506174546 | 27 | 0 | 0.0 | 0.0 | 0.05 | 0.05 | 0.05 | 87 | 1010.6 |
| 20260506173055 | 27 | 0 | 0.0 | 0.0 | 0.00 | 0.00 | 0.00 | 85 | 1010.8 |
| 20260506171547 | 27 | 0 | 0.0 | 0.0 | 0.00 | 0.00 | 0.00 | 82 | 1011.0 |
| 20260506170103 | 27 | 0 | 0.0 | 0.0 | 0.00 | 0.00 | 0.00 | 84 | 1011.0 |
| 20260506164557 | 27 | 0 | 0.0 | 0.0 | 0.00 | 0.00 | 0.00 | 84 | 1011.1 |
| 20260506163136 | 27 | 0 | 0.0 | 0.0 | 0.00 | 0.00 | 0.00 | 85 | 1010.8 |
| 20260506161550 | 26 | 0 | 0.0 | 0.0 | 0.00 | 0.00 | 0.00 | 85 | 1010.6 |
| 20260506160053 | 26 | 0 | 0.0 | 0.0 | 0.00 | 0.00 | 0.00 | 86 | 1010.5 |
| 20260506154555 | 26 | 0 | 0.0 | 0.0 | 0.00 | 0.00 | 0.00 | 86 | 1010.3 |
| 20260506153050 | 26 | 0 | 0.0 | 0.0 | 0.00 | 0.00 | 0.00 | 85 | 1010.2 |
| 20260506151543 | 26 | 0 | 0.0 | 0.0 | 0.00 | 0.00 | 0.00 | 85 | 1010.4 |
| 20260506150051 | 26 | 0 | 0.0 | 0.0 | 0.00 | 0.00 | 0.00 | 87 | 1009.9 |
| 20260506144545 | 26 | 0 | 0.0 | 0.0 | 0.00 | 0.00 | 0.00 | 87 | 1010.0 |
| 20260506143042 | 26 | 0 | 0.0 | 0.0 | 0.00 | 0.00 | 0.00 | 88 | 1009.7 |
| 20260506141549 | 25 | 0 | 0.0 | 0.0 | 0.00 | 0.00 | 0.00 | 88 | 1009.6 |
| 20260506140047 | 25 | 0 | 0.0 | 0.0 | 0.00 | 0.00 | 0.00 | 89 | 1009.7 |
| 20260506134545 | 25 | 0 | 0.0 | 0.0 | 0.00 | 0.00 | 0.00 | 89 | 1009.7 |
| 20260506133047 | 25 | 0 | 0.0 | 0.0 | 0.00 | 0.00 | 0.00 | 90 | 1010.0 |
| 20260506131550 | 24 | 0 | 0.0 | 0.0 | 0.00 | 0.00 | 0.00 | 90 | 1009.9 |
| 20260506130050 | 24 | 0 | 0.0 | 0.0 | 0.00 | 0.00 | 0.00 | 91 | 1010.0 |
| 20260506124555 | 24 | 0 | 0.0 | 0.0 | 0.00 | 0.00 | 0.00 | 91 | 1009.8 |
| 20260506123050 | 23 | 0 | 0.0 | 0.0 | 0.00 | 0.00 | 0.00 | 91 | 1009.6 |
| 20260506121554 | 23 | 0 | 0.0 | 0.0 | 0.00 | 0.00 | 0.00 | 91 | 1009.6 |
| 20260506120051 | 23 | 0 | 0.0 | 0.0 | 0.00 | 0.00 | 0.00 | 91 | 1009.5 |
| 20260506114551 | 23 | 0 | 0.0 | 0.0 | 0.00 | 0.00 | 0.00 | 91 | 1009.2 |
| 20260506113042 | 23 | 0 | 0.0 | 0.0 | 0.00 | 0.00 | 0.00 | 90 | 1009.3 |
| 20260506111542 | 23 | 0 | 0.0 | 0.0 | 0.00 | 0.00 | 0.00 | 90 | 1009.1 |
| 20260506110047 | 23 | 0 | 0.0 | 0.0 | 0.00 | 0.00 | 0.00 | 90 | 1008.6 |
| 20260506104547 | 23 | 0 | 0.0 | 3.2 | 0.00 | 0.00 | 0.00 | 90 | 1008.3 |
| 20260506103044 | 24 | 0 | 0.0 | 4.8 | 0.00 | 0.00 | 0.00 | 89 | 1008.2 |
| 20260506101549 | 24 | 0 | 0.0 | 3.2 | 0.00 | 0.00 | 0.00 | 89 | 1008.3 |
| 20260506100041 | 24 | 0 | 0.0 | 4.8 | 0.00 | 0.00 | 0.00 | 89 | 1008.2 |
| 20260506094542 | 24 | 0 | 0.0 | 6.4 | 0.00 | 0.00 | 0.00 | 89 | 1008.1 |
| 20260506093046 | 24 | 0 | 0.0 | 4.8 | 0.00 | 0.00 | 0.00 | 89 | 1008.0 |
| 20260506091544 | 24 | 0 | 0.0 | 4.8 | 0.00 | 0.00 | 0.00 | 89 | 1007.9 |
| 20260506090056 | 24 | 0 | 0.0 | 3.2 | 0.00 | 0.00 | 0.00 | 89 | 1007.7 |
| 20260506084551 | 24 | 0 | 0.0 | 9.7 | 0.00 | 0.00 | 0.00 | 89 | 1007.8 |
| 20260506083043 | 25 | 0 | 0.0 | 3.2 | 0.00 | 0.00 | 0.00 | 89 | 1008.0 |
| 20260506081543 | 25 | 0 | 0.0 | 6.4 | 0.00 | 0.00 | 0.00 | 88 | 1008.0 |
| 20260506073045 | 25 | 0 | 0.0 | 0.0 | 0.00 | 0.00 | 0.00 | 88 | 1008.7 |
| 20260506071544 | 25 | 0 | 0.0 | 0.0 | 0.00 | 0.00 | 0.00 | 88 | 1009.0 |
| 20260506061553 | 25 | 100 | 0.0 | 0.0 | 0.00 | 0.00 | 0.00 | 87 | 1009.2 |
| 20260506050104 | 25 | 0 | 0.0 | 1.6 | 0.00 | 0.00 | 0.00 | 86 | 1009.1 |
| 20260506044546 | 25 | 0 | 0.0 | 6.4 | 0.00 | 0.00 | 0.00 | 85 | 1009.1 |
| 20260506043044 | 25 | 0 | 0.0 | 6.4 | 0.00 | 0.00 | 0.00 | 85 | 1009.0 |
| 20260506041557 | 25 | 0 | 0.0 | 1.6 | 0.00 | 0.00 | 0.00 | 85 | 1009.2 |
| 20260506040052 | 25 | 0 | 0.0 | 6.4 | 0.00 | 0.00 | 0.00 | 85 | 1008.9 |
| 20260506034552 | 25 | 0 | 0.0 | 4.8 | 0.00 | 0.00 | 0.00 | 85 | 1008.7 |
| 20260506033043 | 26 | 0 | 0.0 | 9.7 | 0.00 | 0.00 | 0.00 | 84 | 1008.5 |
| 20260506031548 | 26 | 0 | 0.0 | 9.7 | 0.00 | 0.00 | 0.00 | 84 | 1008.4 |
| 20260506030043 | 26 | 0 | 0.0 | 6.4 | 0.00 | 0.00 | 0.00 | 83 | 1008.2 |
| 20260506024540 | 26 | 0 | 0.0 | 3.2 | 0.00 | 0.00 | 0.00 | 83 | 1008.0 |
| 20260506023102 | 26 | 0 | 0.0 | 11.3 | 0.00 | 0.00 | 0.00 | 82 | 1007.7 |
| 20260506021552 | 26 | 0 | 0.0 | 8.0 | 0.00 | 0.00 | 0.00 | 82 | 1007.6 |
| 20260506020055 | 26 | 0 | 0.0 | 1.6 | 0.00 | 0.00 | 0.00 | 81 | 1007.4 |
| 20260506014544 | 26 | 0 | 0.0 | 3.2 | 0.00 | 0.00 | 0.00 | 81 | 1007.3 |
| 20260506013052 | 26 | 0 | 0.0 | 0.0 | 0.00 | 0.00 | 0.00 | 81 | 1007.1 |
| 20260506011547 | 26 | 0 | 0.0 | 6.4 | 0.00 | 0.00 | 0.00 | 80 | 1007.0 |
| 20260506010124 | 26 | 0 | 0.0 | 6.4 | 0.00 | 0.00 | 0.00 | 79 | 1006.7 |
| 20260506004546 | 27 | 0 | 0.0 | 4.8 | 0.00 | 0.00 | 0.00 | 79 | 1006.6 |
| 20260506003054 | 27 | 0 | 0.0 | 6.4 | 0.00 | 0.00 | 0.00 | 78 | 1006.6 |
| 20260506001553 | 27 | 0 | 0.0 | 9.7 | 0.00 | 0.00 | 0.00 | 78 | 1006.7 |
| 20260506000044 | 27 | 0 | 0.0 | 4.8 | 0.00 | 0.00 | 0.00 | 77 | 1006.5 |
| 20260505234543 | 27 | 0 | 0.0 | 6.4 | 0.00 | 0.00 | 0.00 | 77 | 1006.6 |
| 20260505233054 | 27 | 112 | 0.0 | 11.3 | 0.00 | 0.00 | 0.00 | 77 | 1006.3 |
| 20260505231549 | 28 | 0 | 0.0 | 6.4 | 0.00 | 0.00 | 0.00 | 76 | 1006.4 |
| 20260505230110 | 28 | 0 | 1.6 | 12.9 | 0.00 | 0.00 | 0.00 | 76 | 1006.3 |
| 20260505224541 | 28 | 0 | 0.0 | 4.8 | 0.00 | 0.00 | 0.00 | 76 | 1006.4 |
| 20260505223050 | 28 | 0 | 0.0 | 3.2 | 0.00 | 0.00 | 0.00 | 74 | 1006.2 |
| 20260505221550 | 28 | 0 | 0.0 | 4.8 | 0.00 | 0.00 | 0.00 | 75 | 1006.5 |
| 20260505220052 | 28 | 0 | 0.0 | 6.4 | 0.00 | 0.00 | 0.00 | 73 | 1006.5 |
| 20260505214548 | 28 | 0 | 0.0 | 11.3 | 0.00 | 0.00 | 0.00 | 74 | 1006.8 |
| 20260505213045 | 28 | 0 | 0.0 | 6.4 | 0.00 | 0.00 | 0.00 | 74 | 1007.0 |